Погода в Холме

Погода в Холме : погода сейчас, прогноз погоды и архив. Всё, что Вы хотите узнать о погоде в Холме!

Поиск расширенной информации на нашем сайте:

Другие новости

Новости СМИ2

Главная страница сайта

Новости сайта

03.07.2017

Напоминаем, что на нашем специализированном сайте Метеоцентр.Азия вы можете получить высокодетализированные автоматические прогнозы погоды по пунктам России, СНГ и мира в авиационном формате (включающие направление и скорость ветра, видимость, явления погоды, количество и форму облачности, нижнюю и верхнюю границу облачности).


Погода в Холме - сегодня

Время (UTC), дата Ветер
(°,м/с) 
Видим.   Явления Облачность Т
(°С)
Тd
(°С)
f(%) Тe
(°С)
Pmin
(гПа)
dP
(гПа)
Po
(мм)
O2
(г/м3)
Тmin Tmax R s Состояние
почвы
00 13.02.18 120 (ЮВ) 20000 м  {снег}  ясно 
-2.6 -6.3 76 -5  1019.6  0.4  758  309           
03 13.02.18 130 (ЮВ) 20000 м    ясно 
-6.6 -10 77 -8  1020.8  759  314  -6.6    0.0     
09 13.02.18 140 (ЮВ) 20000 м    4/0 верхняя 
[Ci sp]
-5.3 -12.2 58 -7  1022.4  0.7  760  313           
12 13.02.18 110 (В) 20000 м    8/0 средняя, верхняя 
[Ac cast|Cc]
-2.4 -12.4 46 -4  1022.1  -0.2  760  310           
15 13.02.18 110 (В) 20000 м    8/0 средняя 
[Ac trans]
-3.7 -9.5 64 -5  1022.7  0.5  760  311           
21 13.02.18 110 (В) 20000 м    4/0 средняя 
[Ac trans]
-10.6 -12 89 -10  1024.9  762  320           
00 14.02.18 тихо ()   20000 м    ясно 
-15 -16.2 91 -15  1025.8  0.8  762  326           
03 14.02.18 080 (В) 20000 м    ясно 
-17.1 -18.8 87 -17  1026.9  763  329  -17.2         
09 14.02.18 090 (В) 20000 м    8/0 верхняя 
[Ci sp]
-7.9 -12.4 70 -8  1028.2  0.9  764  318           
12 14.02.18 080 (В) 20000 м    8/0 верхняя 
[Ci sp]
-4.6 -12 56 -6  1028.1  764  314           
15 14.02.18 040 (СВ) 20000 м    4/0 верхняя 
[Ci fib]
-7.5 -12.2 69 -7  1028.8  0.6  765  318           
21 14.02.18 тихо ()   20000 м    10/0 средняя 
[Ac As]
-11.5 -13.1 88 -12  1030.7  0.8  766  323           
00 15.02.18 тихо ()   20000 м    10/0 средняя 
[Ac As]
-12.8 -14 91 -13  1031.3  0.5  766  325           
09 15.02.18 110 (В) 20000 м    8/0 верхняя 
[Ci fib]
-6.3 -10.6 71 -8  1032.4  0.4  767  318           
12 15.02.18 170 (Ю) 20000 м    9/0 средняя, верхняя 
[Ac trans|Ci fib]
-4.9 -9.9 68 -4  1032  -0.4  767  316           
15 15.02.18 090 (В) 10 км    10/0 средняя 
[Ac As]
-5.1 -9.4 72 -5  1031.1  -0.8  766  316           
21 15.02.18 140 (ЮВ) 10 км  {снег}  10/0 средняя 
[As op]
-5.8 -8.2 83 -7  1030.2  -0.6  766  316           
03 16.02.18 160 (Ю) 20000 м  {снег}  9/9 750 м 
[Sc]
-5.9 -7.8 86 -7  1029  -0.6  765  316  -6.2    0.4     
09 16.02.18 150 (ЮВ) 10 км  слаб. снег  10/0 средняя 
[As op]
-3.6 -6.7 79 -5  1027.6  -0.5  764  313           
21 16.02.18 130 (ЮВ) 4000 м  слаб. снег  10/0 средняя 
[As op]
-2.4 -4 89 -3  1023.5  -0.8  761  310           
09 17.02.18 110 (В) 10 км  слаб. снег  10/0 средняя 
[As op]
-1.9 -3.5 89 -3  1020.2  -0.9  758  308           
21 17.02.18 тихо ()   10 км    10/10 870 м 
[Sc]
-2.7 -3.4 95 -3  1018.7  0.1  757  309           
03 18.02.18 тихо ()   10 км  слаб. ливневой снег  10/10 700 м кучево-дожд. 
[Cb cap]
-4 -4.6 96 -4  1018.3  -0.4  757  310  -4.4    0.0     
03 19.02.18 280 (З) 4000 м  слаб. снег  10/10 240 м 
[Ns]
-6.1 -7.2 92 -8  1019.1  -0.2  757  313  -6.1       
09 19.02.18 290 (З) 10 км  слаб. снег  10/0 средняя 
[As op]
-5.9 -8.2 84 -7  1020  0.6  758  313           
Время (UTC), дата Ветер
(°,м/с) 
Видим.   Явления Облачность Т
(°С)
Тd
(°С)
f(%) Тe
(°С)
Pmin
(гПа)
dP
(гПа)
Po
(мм)
O2
(г/м3)
Тmin Tmax R s Состояние
почвы

Для получения пояснительной информации подведите курсор к названию столбца.

ПОГОДА в Холме - архив

Всё, что Вы хотите узнать о погоде в Холме - удобно и подробно!

Выберите нужную дату (начиная с 1 января 2015* года) и нажмите кнопку "Найти".
Будут отображены архивные сводки погоды по пункту Холм, начиная с указанной даты.


Отображать данные в формате CSV (для использования в таблицах Excel)


Внимание! Наш архив погоды предназначен исключительно для личного некоммерческого использования в познавательных целях. Если Вам необходимы официальные справки о состоянии погоды (для производственных, юридических, коммерческих и т.п. целей), обращайтесь в органы Росгидромета.

*Примечание: данная дата относится к архиву по метеостанциям СССР (Россия, СНГ, Балтия).
Архив по метеостанциям Зарубежной Европы и Азии (кроме Китая) хранится 10 дней, по другим регионам земного шара (Китай, Африка, Америка, Австралия, Океания) - 1 день.

Холм - район местоположения метеостанции


Название, широта, долгота, высота метеостанции:
Холм 57.2°ш. 31.2°д. 71 м над ур. моря [Российская Федерация]

Дополнительная информация

В oтличие oт бoльшинства пoгoдных сайтoв мы публикуем пoдрoбную метеoинфoрмацию в детальнoм прoфессиoнальнoм фoрмате.

Характеристики температуры и влажнoсти вoздуха измеряются на высoте 2 м в тени вдали oт зданий и деревьев.
Скoрoсть ветра измеряется на высoте 10 м (на урoвне рoста челoвека скoрoсть ветра ниже в 1.5-2 раза). Если метеoстанция нахoдится в гoрoде или в лесу, тo скoрoсть ветра занижена на 2-4 м/с пo сравнению с oткрытым местoм. Скoрoсть ветра над акватoриями крупных рек и oзёр, а также на вершинах хoлмoв на 2-5 м/с выше, чем в oбычных услoвиях.
Атмoсфернoе давление в разных тoчках местнoсти мoжет значительнo oтличаться oт давления на метеoстанции, в зависимoсти oт услoвий рельефа (при пoдъёме на 10 м давление пoнижается примернo на 1 мм рт.ст.).